time_stamp(utc),avg(mph),gust(mph),direction(deg),12m_air_temp(f),sonic_u(cm/s),sonic_v(cm/s),sonic_w(cm/s),pressure,2m_air_temp(f),pyranometer(W/m^2)
"2021-06-03 00:02:39+00",8.0,10.0,,61.9,126,-302,3,1022.01,62.1,0
"2021-06-03 00:07:39+00",9.3,10.3,,61.9,98,-395,-22,1022.17,62,0
"2021-06-03 00:12:39+00",7.5,9.5,,61.8,11,-323,3,1022.29,61.9,0
"2021-06-03 00:17:39+00",8.4,10.4,,61.9,83,-346,3,1022.18,61.8,0
"2021-06-03 00:22:39+00",8.0,10.0,,62,95,-328,-10,1022.06,61.9,0
"2021-06-03 00:27:39+00",7.6,8.6,,61.9,142,-301,-2,1021.86,61.9,0
"2021-06-03 00:32:39+00",7.6,8.6,,61.8,142,-291,-1,1021.81,61.8,0
"2021-06-03 00:37:39+00",6.6,8.6,,61.7,73,-277,-1,1021.9,61.7,0
"2021-06-03 00:42:39+00",8.1,10.1,,61.6,96,-328,-16,1021.87,61.5,0
"2021-06-03 00:47:39+00",6.9,8.9,,61.6,71,-293,-18,1021.85,61.5,0
"2021-06-03 00:52:39+00",6.9,8.9,,61.6,55,-273,-29,1021.99,61.4,0
"2021-06-03 00:57:39+00",7.2,8.2,,61.7,75,-259,-53,1021.92,61.6,0
"2021-06-03 01:02:39+00",7.9,8.9,,61.8,136,-284,-60,1021.84,61.7,0
"2021-06-03 01:07:39+00",7.4,9.4,,61.7,88,-261,-35,1021.96,61.6,0
"2021-06-03 01:12:39+00",9.1,10.1,,61.6,101,-368,-55,1022.03,61.6,0
"2021-06-03 01:17:39+00",6.7,8.7,,61.6,68,-235,-44,1021.96,61.6,0
"2021-06-03 01:22:39+00",8.3,9.3,,61.6,144,-302,-53,1021.72,61.6,0
"2021-06-03 01:27:39+00",8.6,9.6,,61.6,128,-325,-72,1021.78,61.6,0
"2021-06-03 01:32:39+00",7.0,10.0,,61.5,79,-268,8,1021.96,61.5,0
"2021-06-03 01:37:39+00",7.6,8.6,,61.5,111,-306,-9,1021.93,61.4,0
"2021-06-03 01:42:39+00",7.8,9.8,,61.5,106,-285,-7,1021.96,61.4,0
"2021-06-03 01:47:39+00",8.8,10.8,,61.6,105,-363,-11,1021.88,61.4,0
"2021-06-03 01:52:39+00",7.8,9.8,,61.6,89,-311,-10,1021.84,61.4,0
"2021-06-03 01:57:39+00",5.9,7.9,,61.6,66,-220,4,1021.86,61.4,0
"2021-06-03 02:02:39+00",7.5,8.5,,61.6,59,-302,-8,1021.97,61.4,0
"2021-06-03 02:07:39+00",8.9,12.9,,61.7,96,-361,-7,1021.89,61.4,0
"2021-06-03 02:12:39+00",8.4,10.4,,61.7,76,-362,-9,1021.87,61.4,0
"2021-06-03 02:17:39+00",8.2,10.2,,61.8,86,-350,-11,1021.68,61.5,0
"2021-06-03 02:22:39+00",7.7,9.7,,61.8,65,-319,-9,1021.74,61.5,0
"2021-06-03 02:27:39+00",8.2,11.2,,61.9,61,-352,5,1021.74,61.6,0
"2021-06-03 02:32:39+00",8.1,10.1,,61.9,72,-345,-6,1021.61,61.6,0
"2021-06-03 02:37:39+00",9.2,11.2,,61.9,58,-390,-8,1021.66,61.6,0
"2021-06-03 02:42:39+00",8.1,11.1,,61.9,58,-348,-10,1021.61,61.6,0
"2021-06-03 02:47:39+00",7.4,10.4,,61.9,55,-303,5,1021.59,61.7,0
"2021-06-03 02:52:39+00",6.9,8.9,,61.9,30,-293,-3,1021.65,61.6,0
"2021-06-03 02:57:39+00",8.1,11.1,,61.9,2,-344,-20,1021.68,61.7,0
"2021-06-03 03:02:39+00",6.5,8.5,,61.9,19,-271,-15,1021.5,61.7,0
"2021-06-03 03:07:39+00",6.6,10.6,,62,2,-267,3,1021.44,61.7,0
"2021-06-03 03:12:39+00",6.1,9.1,,62.1,4,-248,-3,1021.39,61.8,0
"2021-06-03 03:17:39+00",9.8,11.8,,62.1,50,-412,-14,1021.28,61.9,0
"2021-06-03 03:22:39+00",9.2,13.2,,62.1,62,-377,-6,1021.07,61.9,0
"2021-06-03 03:27:39+00",9.1,11.1,,62,68,-390,1,1021.04,61.9,0
"2021-06-03 03:32:39+00",9.5,11.5,,61.8,77,-410,-7,1020.97,61.7,0
"2021-06-03 03:37:39+00",9.0,12.0,,61.7,41,-364,-3,1021.08,61.6,0
"2021-06-03 03:42:39+00",8.1,11.1,,61.6,6,-333,-17,1021.15,61.5,0
"2021-06-03 03:47:39+00",7.3,10.3,,61.6,18,-316,-21,1021.04,61.4,0
"2021-06-03 03:52:39+00",7.8,8.8,,61.6,-24,-318,-27,1021.07,61.5,0
"2021-06-03 03:57:39+00",7.5,9.5,,61.6,58,-307,-11,1020.87,61.4,0
"2021-06-03 04:02:39+00",6.8,7.8,,61.6,31,-295,-14,1021.04,61.4,0
"2021-06-03 04:07:39+00",5.9,6.9,,61.5,27,-252,-17,1020.99,61.4,0
"2021-06-03 04:12:39+00",6.6,7.6,,61.5,13,-271,-9,1021.12,61.4,0
"2021-06-03 04:17:39+00",6.2,8.2,,61.5,-57,-241,-10,1021.13,61.4,0
"2021-06-03 04:22:39+00",5.9,6.9,,61.7,-14,-244,-10,1020.96,61.4,0
"2021-06-03 04:27:39+00",6.9,7.9,,61.7,-23,-286,-38,1020.83,61.6,0
"2021-06-03 04:32:39+00",4.5,5.5,,61.8,2,-181,-2,1020.6,61.6,0
"2021-06-03 04:37:39+00",4.1,5.1,,61.8,77,-153,13,1020.38,61.6,0
"2021-06-03 04:42:39+00",7.3,9.3,,61.8,151,-248,-24,1020.27,61.6,0
"2021-06-03 04:47:39+00",2.9,4.9,,61.8,24,-121,-1,1020.32,61.6,0
"2021-06-03 04:52:39+00",5.3,6.3,,61.8,90,-197,-13,1020.12,61.6,0
"2021-06-03 04:57:39+00",7.6,8.6,,61.6,180,-274,-8,1019.96,61.6,0
"2021-06-03 05:02:39+00",7.6,8.6,,61.5,161,-281,3,1019.9,61.4,0
"2021-06-03 05:07:39+00",8.2,10.2,,61.4,73,-355,-24,1019.98,61.3,0
"2021-06-03 05:12:39+00",12.3,14.3,,61.8,157,-510,-12,1019.77,61.5,0
"2021-06-03 05:17:39+00",6.2,8.2,,61.6,-12,-256,6,1020.18,61.4,0
"2021-06-03 05:22:39+00",7.2,10.2,,61.6,-31,-294,-9,1020.18,61.3,0
"2021-06-03 05:27:39+00",8.1,11.1,,61.7,-15,-362,-21,1020.29,61.5,0
"2021-06-03 05:32:39+00",8.3,10.3,,62,3,-349,-20,1020.24,61.7,0
"2021-06-03 05:37:39+00",7.1,9.1,,62.2,-43,-297,-1,1020.17,61.8,0
"2021-06-03 05:42:39+00",5.9,7.9,,62.3,-15,-245,4,1020.09,61.9,0
"2021-06-03 05:47:39+00",7.2,8.2,,62.3,45,-313,-11,1019.96,62,0
"2021-06-03 05:52:39+00",5.5,7.5,,62.3,49,-212,1,1019.85,62,0
"2021-06-03 05:57:39+00",6.5,7.5,,62.3,-9,-254,-16,1019.86,61.9,0
"2021-06-03 06:02:39+00",5.2,7.2,,62.1,64,-209,-3,1019.73,61.8,0
"2021-06-03 06:07:39+00",5.1,7.1,,61.8,39,-200,4,1019.64,61.7,0
"2021-06-03 06:12:39+00",4.2,5.2,,61.6,24,-172,-1,1019.5,61.4,0
"2021-06-03 06:17:39+00",3.2,4.2,,61.5,-28,-121,6,1019.45,61.3,0
"2021-06-03 06:22:39+00",4.0,5.0,,61.5,-50,-160,-5,1019.47,61.3,0
"2021-06-03 06:27:39+00",4.6,6.6,,61.7,2,-178,-8,1019.28,61.4,0
"2021-06-03 06:32:39+00",6.3,7.3,,61.8,79,-243,-10,1019.24,61.6,0
"2021-06-03 06:37:39+00",5.8,7.8,,61.9,63,-225,-1,1019.25,61.7,0
"2021-06-03 06:42:39+00",4.5,5.5,,61.8,96,-159,3,1019.14,61.7,0
"2021-06-03 06:47:39+00",5.6,6.6,,61.7,99,-212,-8,1019.22,61.6,0
"2021-06-03 06:52:39+00",2.9,3.9,,61.7,16,-104,7,1019.22,61.6,0
"2021-06-03 06:57:39+00",2.9,4.9,,61.7,-31,-91,-7,1019.21,61.6,0
"2021-06-03 07:02:39+00",3.9,4.9,,61.7,35,-154,-4,1019.12,61.6,0
"2021-06-03 07:07:39+00",2.3,3.3,,61.7,9,-93,2,1019.18,61.6,0
"2021-06-03 07:12:39+00",2.2,3.2,,61.7,-7,-73,4,1019.26,61.6,0
"2021-06-03 07:17:39+00",2.4,2.4,,61.6,16,-91,-3,1019.08,61.5,0
"2021-06-03 07:22:39+00",3.2,4.2,,61.5,36,-123,-7,1019.08,61.4,0
"2021-06-03 07:27:39+00",3.8,4.8,,61.4,80,-130,10,1018.93,61.4,0
"2021-06-03 07:32:39+00",3.6,4.6,,61.4,78,-122,-14,1018.97,61.4,0
"2021-06-03 07:37:39+00",1.5,2.5,,61.4,19,-17,21,1018.99,61.4,0
"2021-06-03 07:42:39+00",1.4,2.4,,61.4,14,-34,21,1018.9,61.4,0
"2021-06-03 07:47:39+00",2.2,3.2,,61.4,78,-15,-2,1018.78,61.4,0
"2021-06-03 07:52:39+00",1.4,1.4,,61.3,43,17,1,1018.59,61.4,0
"2021-06-03 07:57:39+00",3.2,4.2,,61.3,133,13,15,1018.45,61.5,0
"2021-06-03 08:02:39+00",3.8,3.8,,61.1,161,8,9,1018.38,61.5,0
"2021-06-03 08:07:39+00",3.8,3.8,,61,162,8,5,1018.4,61.4,0
"2021-06-03 08:12:39+00",4.6,5.6,,61,195,28,15,1018.34,61.4,0
"2021-06-03 08:17:39+00",3.9,4.9,,61,159,8,23,1018.36,61.3,0
"2021-06-03 08:22:39+00",4.4,5.4,,60.8,170,83,24,1018.32,61.2,0
"2021-06-03 08:27:39+00",2.4,3.4,,60.7,7,98,-1,1018.44,61,0
"2021-06-03 08:32:39+00",3.8,3.8,,60.7,-70,140,14,1018.63,60.9,0
"2021-06-03 08:37:39+00",4.1,5.1,,60.6,33,164,-5,1018.47,60.8,0
"2021-06-03 08:42:39+00",3.5,3.5,,60.4,125,70,6,1018.53,60.7,0
"2021-06-03 08:47:39+00",4.7,4.7,,60.3,193,85,13,1018.46,60.6,0
"2021-06-03 08:52:39+00",6.1,7.1,,60.2,200,181,1,1018.47,60.5,0
"2021-06-03 08:57:39+00",7.0,7.0,,60.3,-49,303,6,1018.52,60.5,0
"2021-06-03 09:02:39+00",6.5,7.5,,60.3,-111,249,14,1018.69,60.5,0
"2021-06-03 09:07:39+00",7.6,9.6,,60.5,-223,249,29,1018.82,60.6,0
"2021-06-03 09:12:39+00",6.2,7.2,,60.4,-146,227,-2,1018.81,60.5,0
"2021-06-03 09:17:39+00",6.8,7.8,,60.5,209,202,4,1018.35,60.5,0
"2021-06-03 09:22:39+00",4.9,5.9,,60.5,184,104,1,1018.35,60.5,0
"2021-06-03 09:27:39+00",5.1,6.1,,60.5,216,49,18,1018.24,60.6,0
"2021-06-03 09:32:39+00",8.3,10.3,,60.7,348,62,54,1017.84,60.6,0
"2021-06-03 09:37:39+00",6.0,8.0,,61,243,-49,1,1017.87,60.7,0
"2021-06-03 09:42:39+00",5.6,6.6,,60.6,248,-25,5,1018,60.8,0
"2021-06-03 09:47:39+00",4.9,5.9,,60.6,213,-34,5,1018.1,60.6,0
"2021-06-03 09:52:39+00",5.4,6.4,,60.8,222,-80,7,1018.28,60.7,0
"2021-06-03 09:57:39+00",4.3,4.3,,60.8,183,-4,4,1018.23,60.8,0
"2021-06-03 10:02:39+00",3.5,3.5,,60.8,140,31,13,1018.32,60.8,0
"2021-06-03 10:07:39+00",2.8,3.8,,60.8,102,47,2,1018.43,60.8,0
"2021-06-03 10:12:39+00",3.0,3.0,,60.8,91,78,0,1018.44,60.8,0
"2021-06-03 10:17:39+00",2.4,2.4,,61.3,-33,83,2,1018.44,60.8,0
"2021-06-03 10:22:39+00",5.6,6.6,,61.3,7,234,-9,1018.33,61,0
"2021-06-03 10:27:39+00",4.0,5.0,,61.5,83,130,-13,1018.13,61,0
"2021-06-03 10:32:39+00",3.1,3.1,,61.8,113,55,-9,1018.13,61.2,0
"2021-06-03 10:37:39+00",1.4,2.4,,62.1,50,5,-7,1018.15,61.4,0
"2021-06-03 10:42:39+00",1.8,2.8,,62.6,61,-30,-6,1018.22,61.8,0
"2021-06-03 10:47:39+00",3.2,4.2,,62.6,128,-11,-1,1018.15,62.1,0
"2021-06-03 10:52:39+00",3.7,4.7,,62.6,150,-24,-1,1018.2,62.3,0
"2021-06-03 10:57:39+00",3.6,3.6,,62.4,147,3,3,1018.08,62.5,0
"2021-06-03 11:02:39+00",4.6,5.6,,62.1,196,11,8,1017.91,62.5,0
"2021-06-03 11:07:39+00",5.4,6.4,,62,218,-70,10,1017.99,62.3,0
"2021-06-03 11:12:39+00",5.1,6.1,,62.3,201,-90,5,1017.97,62.4,0
"2021-06-03 11:17:39+00",4.2,5.2,,62.3,144,-100,-3,1017.99,62.5,0
"2021-06-03 11:22:39+00",4.8,5.8,,62.5,139,-146,-4,1018.01,62.7,0
"2021-06-03 11:27:39+00",4.4,5.4,,62.6,101,-146,-21,1018,62.9,0
"2021-06-03 11:32:39+00",4.4,4.4,,63.1,104,-152,-8,1018.03,63.4,0
"2021-06-03 11:37:39+00",6.6,7.6,,63.7,41,-268,-13,1018.08,63.7,0
"2021-06-03 11:42:39+00",7.1,8.1,,63.7,18,-303,-14,1018.07,63.5,0
"2021-06-03 11:47:39+00",8.3,10.3,,63.5,44,-349,-22,1018.22,63.6,0
"2021-06-03 11:52:39+00",8.1,10.1,,63.1,98,-328,-9,1018.13,63.3,0
"2021-06-03 11:57:39+00",7.1,9.1,,63.3,30,-297,-13,1018.27,63.3,0
"2021-06-03 12:02:39+00",8.7,10.7,,63.4,61,-365,-21,1018.29,63.6,0
"2021-06-03 12:07:39+00",8.2,9.2,,63.6,35,-339,-14,1018.12,63.8,0
"2021-06-03 12:12:39+00",7.5,9.5,,63.5,69,-315,10,1018.15,63.8,0
"2021-06-03 12:17:39+00",7.0,10.0,,63.8,11,-288,-5,1018.16,64,0
"2021-06-03 12:22:39+00",6.9,8.9,,64.1,17,-272,-5,1018.19,64.3,0
"2021-06-03 12:27:39+00",7.0,10.0,,64.4,-23,-285,-3,1018.16,64.4,0
"2021-06-03 12:32:39+00",11.2,14.2,,64.2,-105,-462,-13,1018.19,64.2,0
"2021-06-03 12:37:39+00",10.6,12.6,,64.2,-113,-433,-12,1018.3,64.1,0
"2021-06-03 12:42:39+00",9.2,10.2,,64.3,-138,-372,-3,1018.21,64.2,0
"2021-06-03 12:47:39+00",10.7,12.7,,64.7,-127,-450,-9,1018.14,64.5,0
"2021-06-03 12:52:39+00",13.7,15.7,,65.1,-283,-534,-6,1018.1,64.8,0
"2021-06-03 12:57:39+00",8.3,10.3,,65.2,-158,-322,1,1018.07,65,0
"2021-06-03 13:02:39+00",8.0,10.0,,65.4,-202,-297,2,1018.1,65.2,0
"2021-06-03 13:07:39+00",11.0,14.0,,65.7,-176,-452,-11,1018.05,65.5,0
"2021-06-03 13:12:39+00",8.9,10.9,,65.9,-5,-364,-4,1018,65.8,0
"2021-06-03 13:17:39+00",10.9,14.9,,65.7,-110,-458,9,1018.04,65.7,0
"2021-06-03 13:22:39+00",11.3,15.3,,65.7,-84,-479,-11,1017.91,65.9,0
"2021-06-03 13:27:39+00",11.5,15.5,,65.9,-133,-491,0,1017.85,65.9,0
"2021-06-03 13:32:39+00",12.0,16.0,,66.1,-150,-514,-6,1017.85,66.1,0
"2021-06-03 13:37:39+00",9.9,10.9,,66,-68,-418,-12,1017.82,65.9,0
"2021-06-03 13:42:39+00",9.2,11.2,,65.9,-63,-376,-14,1017.87,65.9,0
"2021-06-03 13:47:39+00",6.4,8.4,,66.1,-39,-258,33,1017.7,66.2,0
"2021-06-03 13:52:39+00",8.9,11.9,,66.4,-41,-361,-1,1017.58,66.5,0
"2021-06-03 13:57:39+00",6.9,9.9,,66.6,-20,-266,28,1017.56,66.8,0
"2021-06-03 14:02:39+00",10.0,14.0,,66.6,-92,-420,3,1017.41,66.8,0
"2021-06-03 14:07:39+00",9.2,13.2,,66.8,-13,-375,-2,1017.39,66.9,0
"2021-06-03 14:12:39+00",8.2,11.2,,66.7,-14,-330,18,1017.42,66.8,0
"2021-06-03 14:17:39+00",12.8,16.8,,67,-85,-512,2,1017.42,67.3,0
"2021-06-03 14:22:39+00",10.4,15.4,,67,-69,-427,11,1017.46,67.2,0
"2021-06-03 14:27:39+00",10.4,16.4,,67,-65,-424,8,1017.37,67.3,0
"2021-06-03 14:32:39+00",13.2,15.2,,66.5,-109,-554,-15,1017.29,67.1,0
"2021-06-03 14:37:39+00",12.0,17.0,,66.3,-110,-467,1,1017.34,66.9,0
"2021-06-03 14:42:39+00",10.7,16.7,,66.1,-98,-431,14,1017.35,66.6,0
"2021-06-03 14:47:39+00",13.0,16.0,,65.5,-76,-574,-23,1017.58,65.9,0
"2021-06-03 14:52:39+00",13.3,17.3,,65,-130,-546,13,1017.49,65.4,0
"2021-06-03 14:57:39+00",13.1,17.1,,64.7,-109,-576,4,1017.51,65,0
"2021-06-03 15:02:39+00",12.8,16.8,,64.6,-75,-551,-1,1017.52,65,0
"2021-06-03 15:07:39+00",12.8,15.8,,65,-159,-539,5,1017.47,65.5,0
"2021-06-03 15:12:39+00",13.7,16.7,,65.2,-208,-564,5,1017.45,65.7,0
"2021-06-03 15:17:39+00",13.9,17.9,,65.7,-200,-567,13,1017.43,66.2,0
"2021-06-03 15:22:39+00",14.3,16.3,,66.4,-301,-578,-12,1017.45,67.2,0
"2021-06-03 15:27:39+00",13.6,15.6,,67.2,-210,-557,15,1017.47,67.9,0
"2021-06-03 15:32:39+00",14.8,18.8,,67.8,-358,-578,11,1017.39,68.6,0
"2021-06-03 15:37:39+00",13.7,16.7,,68,-279,-553,-1,1017.23,68.9,0
"2021-06-03 15:42:39+00",13.6,14.6,,68.3,-373,-508,5,1017.15,69.3,0
"2021-06-03 15:47:39+00",13.8,15.8,,68.7,-335,-537,-10,1017,69.6,0
"2021-06-03 15:52:39+00",13.3,15.3,,68.6,-364,-501,6,1016.9,70,0
"2021-06-03 15:57:39+00",14.0,16.0,,69.1,-341,-532,-3,1016.87,70.4,0
"2021-06-03 16:02:39+00",11.9,14.9,,69.1,-268,-454,-7,1016.79,70.7,0
"2021-06-03 16:07:39+00",12.4,14.4,,69.9,-353,-445,17,1016.81,71.3,0
"2021-06-03 16:12:39+00",12.9,14.9,,69.5,-277,-506,20,1016.87,71.3,0
"2021-06-03 16:17:39+00",10.8,13.8,,69.7,-117,-439,7,1016.79,71.3,0
"2021-06-03 16:22:39+00",13.0,15.0,,69.4,-210,-542,-10,1016.86,70.9,0
"2021-06-03 16:27:39+00",11.8,15.8,,69.7,-86,-505,-10,1016.74,71,0
"2021-06-03 16:32:39+00",11.3,13.3,,69.5,-146,-460,-5,1016.59,70.9,0
"2021-06-03 16:37:39+00",11.5,15.5,,69.6,-119,-474,15,1016.55,71,0
"2021-06-03 16:42:39+00",11.6,14.6,,69.1,38,-483,-10,1016.4,70.6,0
"2021-06-03 16:47:39+00",13.9,17.9,,67,31,-559,11,1016.46,68.5,0
"2021-06-03 16:52:39+00",14.1,19.1,,67.1,-41,-590,-11,1016.57,68.3,0
"2021-06-03 16:57:39+00",16.6,20.6,,67.2,-97,-712,-36,1016.57,68.9,0
"2021-06-03 17:02:39+00",15.3,20.3,,67.1,-112,-643,-25,1016.64,68.8,0
"2021-06-03 17:07:39+00",15.4,19.4,,67.8,-82,-668,-15,1016.69,69.3,0
"2021-06-03 17:12:39+00",15.3,19.3,,67.8,-190,-621,-6,1016.59,69.5,0
"2021-06-03 17:17:39+00",13.4,17.4,,68.3,-157,-539,3,1016.55,69.8,0
"2021-06-03 17:22:39+00",12.3,16.3,,68.9,-97,-530,18,1016.49,70.4,0
"2021-06-03 17:27:39+00",9.9,16.9,,69.2,-32,-411,26,1016.38,70.7,0
"2021-06-03 17:32:39+00",13.0,16.0,,69.1,-146,-545,-5,1016.31,70.8,0
"2021-06-03 17:37:39+00",12.2,16.2,,69.4,-110,-529,9,1016.29,71.2,0
"2021-06-03 17:42:39+00",13.0,18.0,,68.9,-95,-532,2,1016.29,70.7,0
"2021-06-03 17:47:39+00",14.2,17.2,,68.8,-109,-583,-15,1016.14,70.2,0
"2021-06-03 17:52:39+00",13.4,18.4,,69.2,-113,-552,-1,1016.05,70.6,0
"2021-06-03 17:57:39+00",11.8,15.8,,68.4,-38,-513,-1,1015.98,69.9,0
"2021-06-03 18:02:39+00",11.5,15.5,,68.1,-71,-497,30,1016.03,69.7,0
"2021-06-03 18:07:39+00",13.1,17.1,,68.3,-137,-542,29,1016.04,69.9,0
"2021-06-03 18:12:39+00",14.9,16.9,,68.9,-225,-624,1,1016.05,70.3,0
"2021-06-03 18:17:39+00",15.6,17.6,,69.1,-204,-647,-22,1015.99,70.6,0
"2021-06-03 18:22:39+00",13.7,15.7,,69.4,-216,-562,-11,1015.86,71,0
"2021-06-03 18:27:39+00",14.6,16.6,,70.5,-242,-588,-16,1015.81,71.8,0
"2021-06-03 18:32:39+00",12.6,14.6,,71.3,-171,-528,7,1015.79,72.5,0
"2021-06-03 18:37:39+00",17.1,20.1,,71.5,-343,-691,-6,1015.73,72.6,0
"2021-06-03 18:42:39+00",18.3,22.3,,71.5,-323,-742,4,1015.69,72.7,0
"2021-06-03 18:47:39+00",19.5,21.5,,72,-430,-783,-17,1015.7,73.2,0
"2021-06-03 18:52:39+00",16.3,19.3,,72.5,-256,-660,-1,1015.67,73.7,0
"2021-06-03 18:57:39+00",15.1,18.1,,72.4,-271,-599,1,1015.54,73.4,0
"2021-06-03 19:02:39+00",11.3,15.3,,73,-135,-488,32,1015.49,73.9,0
"2021-06-03 19:07:39+00",15.3,17.3,,72.9,-236,-638,9,1015.41,74,0
"2021-06-03 19:12:39+00",13.3,16.3,,72.4,-196,-544,10,1015.47,73.6,0
"2021-06-03 19:17:39+00",13.5,18.5,,72.4,-160,-580,-22,1015.39,73.3,0
"2021-06-03 19:22:39+00",9.8,13.8,,72,-95,-424,15,1015.47,73,0
"2021-06-03 19:27:39+00",11.9,14.9,,71.2,-103,-489,5,1015.58,72.2,0
"2021-06-03 19:32:39+00",11.1,14.1,,71.3,-90,-465,9,1015.54,72.2,0
"2021-06-03 19:37:39+00",8.9,13.9,,71.8,-82,-378,10,1015.52,72.7,0
"2021-06-03 19:42:39+00",11.7,14.7,,71.7,-95,-491,9,1015.54,72.8,0
"2021-06-03 19:47:39+00",10.3,13.3,,72.1,-97,-429,8,1015.42,73.1,0
"2021-06-03 19:52:39+00",14.3,17.3,,72.4,-180,-588,-14,1015.34,73.3,0
"2021-06-03 19:57:39+00",12.2,17.2,,72,56,-518,9,1015.29,73.2,0
"2021-06-03 20:02:39+00",14.4,19.4,,69.1,133,-624,-6,1015.31,70.8,0
"2021-06-03 20:07:39+00",12.0,17.0,,68.6,49,-527,-19,1015.38,69.9,0
"2021-06-03 20:12:39+00",13.9,18.9,,67.8,49,-596,-32,1015.34,68.9,0
"2021-06-03 20:17:39+00",11.1,14.1,,67.1,55,-463,-3,1015.35,68,0
"2021-06-03 20:22:39+00",13.0,16.0,,66.1,68,-551,-6,1015.4,67.1,0
"2021-06-03 20:27:39+00",9.1,12.1,,66.1,-30,-375,-14,1015.41,67,0
"2021-06-03 20:32:39+00",11.5,15.5,,66.9,-57,-512,-23,1015.31,67.6,0
"2021-06-03 20:37:39+00",8.9,12.9,,67.1,-32,-396,-3,1015.2,67.9,0
"2021-06-03 20:42:39+00",10.4,14.4,,67,-26,-394,23,1015.19,67.7,0
"2021-06-03 20:47:39+00",10.0,14.0,,66.7,-55,-410,29,1015.11,67.2,0
"2021-06-03 20:52:39+00",12.4,16.4,,66.5,-77,-545,-12,1015.01,67.1,0
"2021-06-03 20:57:39+00",11.4,13.4,,66.5,-61,-470,-12,1014.76,67.2,0
"2021-06-03 21:02:39+00",8.6,11.6,,66.7,-66,-358,22,1014.88,67.3,0
"2021-06-03 21:07:39+00",11.1,14.1,,66.9,-76,-471,14,1014.84,67.4,0
"2021-06-03 21:12:39+00",9.9,13.9,,67.2,-52,-408,-8,1014.83,67.6,0
"2021-06-03 21:17:39+00",10.0,15.0,,67.3,-83,-437,18,1014.65,67.8,0
"2021-06-03 21:22:39+00",12.2,15.2,,67.4,-101,-510,-14,1014.54,67.9,0
"2021-06-03 21:27:39+00",13.0,15.0,,67.7,-108,-530,-11,1014.52,68.1,0
"2021-06-03 21:32:39+00",10.2,14.2,,68.2,-89,-433,6,1014.4,68.6,0
"2021-06-03 21:37:39+00",13.6,16.6,,68.9,-222,-563,4,1014.44,69.3,0
"2021-06-03 21:42:39+00",15.4,17.4,,69.5,-256,-631,-2,1014.53,69.9,0
"2021-06-03 21:47:39+00",17.1,20.1,,69.7,-289,-701,-2,1014.59,70.1,0
"2021-06-03 21:52:39+00",15.3,18.3,,69.5,-234,-629,-8,1014.55,70,0
"2021-06-03 21:57:39+00",14.0,16.0,,69.5,-227,-570,14,1014.67,69.9,0
"2021-06-03 22:02:39+00",14.7,16.7,,69.2,-252,-592,39,1014.86,69.6,0
"2021-06-03 22:07:39+00",14.9,18.9,,69.2,-205,-636,-4,1014.83,69.7,0
"2021-06-03 22:12:39+00",17.3,21.3,,69.1,-274,-722,-7,1014.78,69.6,0
"2021-06-03 22:17:39+00",18.4,21.4,,68.8,-325,-752,-3,1014.78,69.2,0
"2021-06-03 22:22:39+00",17.7,22.7,,68.6,-237,-741,-8,1014.6,68.8,0
"2021-06-03 22:27:39+00",16.1,19.1,,68.6,-197,-680,-1,1014.49,68.8,0
"2021-06-03 22:32:39+00",15.2,21.2,,68.5,-173,-634,7,1014.41,68.7,0
"2021-06-03 22:37:39+00",16.5,19.5,,68.2,-250,-705,-15,1014.52,68.5,0
"2021-06-03 22:42:39+00",17.2,20.2,,68.1,-298,-702,-5,1014.53,68.2,0
"2021-06-03 22:47:39+00",15.5,19.5,,68,-223,-648,3,1014.51,68.2,0
"2021-06-03 22:52:39+00",15.3,18.3,,68.1,-231,-643,3,1014.3,68.2,0
"2021-06-03 22:57:39+00",17.2,21.2,,68.4,-270,-690,-17,1014.08,68.3,0
"2021-06-03 23:02:39+00",15.5,17.5,,68.6,-220,-640,-9,1014.14,68.4,0
"2021-06-03 23:07:39+00",15.5,18.5,,68.8,-336,-617,19,1014.49,68.6,0
"2021-06-03 23:12:39+00",15.6,20.6,,68.8,-385,-629,10,1014.73,68.6,0
"2021-06-03 23:17:39+00",20.4,24.4,,68.9,-647,-619,40,1015.08,68.7,0
"2021-06-03 23:22:39+00",23.5,27.5,,68.6,-828,-660,30,1015.4,68.6,0
"2021-06-03 23:27:39+00",16.6,19.6,,68.1,-581,-468,24,1015.26,68.4,0
"2021-06-03 23:32:39+00",24.2,29.2,,68.2,-842,-707,35,1015.44,68.2,0
"2021-06-03 23:37:39+00",24.6,27.6,,68.4,-843,-705,36,1015.21,68.2,0
"2021-06-03 23:42:39+00",27.1,30.1,,68.3,-787,-944,-16,1014.98,68.3,0
"2021-06-03 23:47:39+00",21.7,23.7,,68.2,-620,-752,8,1014.93,68,0
"2021-06-03 23:52:39+00",16.2,17.2,,69,-446,-592,16,1014.69,68.2,0
"2021-06-03 23:57:39+00",13.4,14.4,,69.3,-362,-478,20,1014.63,68.3,0
